Weather in Niigata

Japan     37°49′52″N   139°01′09″E
temp.,
°C
wind,
m/s
gust,
m/s
humid.,
%
clouds,
%
prec.,
mm/h
press.,
hPa
HPBL,
m
23 january, sat
sat2300:00+3ene129393 0.0 102129
03:00+3ne239097 0.0 102176
06:00+3ne258599 0.0 1021117
09:00+4ne3779100 0.0 1023325
12:00+6nne4771100 0.0 1022578
15:00+6nne4774100 0.0 1021508
18:00+5nne3682100 0.0 1022264
21:00+5ne2487100 0.3 1022170
24 january, sun
sun2400:00+4ne2390100 0.3 1022118
03:00+4ene2390100 0.6 1021121
06:00+4e3789100 0.6 1021291
09:00+4e2584100 1.3 1023271
12:00+6ene3470100 0.1 1022352
15:00+7ene2366100 0.1 1023377
18:00+5ene2374100 0.0 102589
21:00+3e117767 0.0 102629
25 january, mon
mon2500:00+2ese11780 0.0 102723
03:00+2se11790 0.0 102823
06:00+2se11800 0.0 102922
09:00+4ene11700 0.0 103198
12:00+8n11580 0.0 1030571
15:00+8n21520 0.0 1030737
18:00+5ne24650 0.0 1031137
21:00+4e12760 0.0 103149
26 january, tue
tue2600:00+3e12810 0.0 103036
03:00+2se12740 0.0 103032
06:00+2se12632 0.0 103024
09:00+4n015251 0.0 102952
12:00+9se234068 0.0 1026283
15:00+10ese124884 0.0 1024198
18:00+7ese1269100 0.0 102368
21:00+7se2474100 0.0 1022118
27 january, wed
wed2700:00+6se3867100 0.0 1018166
03:00+6sse2272100 0.1 101452
06:00+8w4972100 0.3 1015271
09:00+8nnw51083100 2.0 1020506
12:00+7nnw5762100 0.1 10211033
15:00+7n5753100 0.1 10211042
18:00+5nne365477 0.0 1022536
21:00+3ne255951 0.0 1022282